Flag for U.S.A. Weather past 2 weeks in Washington DC, District of Columbia, U.S.A.

Now
46 °F

Sunny.


Feels Like: 40 °F
Forecast: 38 / 58 °F
Wind: 13 mph from Northwest

Location: Reagan National Airport

Current Time: Apr 1, 2015 at 9:49:35 AM

Latest Report: Apr 1, 2015 at 8:52 AM


Visibility: 10 mi

Pressure: 30.14 "Hg

Humidity: 48%

Dew point: 27 °F

Location of Washington DCLocation

Historic Weather in Washington DC — Graph

°F

Washington DC temperature yesterday

Maximum temperature yesterday: 73 °F (at 2:52 PM)
Minimum temperature yesterday: 45 °F (at 6:52 AM)
Average temperature yesterday: 56 °F

Past Weeks' High & Low Weather Summary

 TemperatureHumidityPressure
High76 °F (Mar 26, 5:52 PM)90% (Mar 26, 12:52 PM)30.42 "Hg (Mar 26, 12:52 PM)
Low28 °F (Mar 29, 4:52 AM)16% (Mar 29, 5:52 PM)29.58 "Hg (Mar 31, 3:52 PM)
Average47 °F47%30.08 "Hg
* Reported Mar 17 8:52 AM — Apr 1 8:52 AM, Washington DC, Weather by CustomWeather, © 2015

Note: Actual official high and low records may vary slightly from our data, if they occured in-between our weather recording intervals... More about our weather records

Advertising

Washington DC weather history for previous 24 hours

 ConditionsComfort  
Time TempWeatherWind HumidityBarometerVisibility
8:52 AM
Wed, Apr 1
46 °FSunny.13 mph48%30.14 "Hg10 mi
7:52 AM43 °FPassing clouds.9 mph53%30.11 "Hg10 mi
6:52 AM41 °FPassing clouds.9 mph58%30.07 "Hg10 mi
5:52 AM41 °FPassing clouds.12 mph60%30.03 "Hg10 mi
4:52 AM41 °FPassing clouds.7 mph62%30.01 "Hg10 mi
3:52 AM41 °FPassing clouds.7 mph65%29.99 "Hg10 mi
2:52 AM41 °FPassing clouds.7 mph65%29.98 "Hg10 mi
1:52 AM43 °FPassing clouds.13 mph62%29.96 "Hg10 mi
12:52 AM44 °FPassing clouds.24 mph63%29.93 "Hg10 mi
11:52 PM
Tue, Mar 31
47 °FPassing clouds.21 mph69%29.89 "Hg10 mi
10:52 PM49 °FPassing clouds.15 mph66%29.84 "Hg10 mi
9:52 PM53 °FPassing clouds.16 mph61%29.81 "Hg10 mi
8:52 PM55 °FLight rain. Overcast.16 mph67%29.77 "Hg10 mi
7:52 PM56 °FLight rain. Broken clouds.17 mph62%29.72 "Hg10 mi
6:55 PM66 °FBroken clouds.14 mph37%29.64 "Hg10 mi
5:52 PM66 °FLight rain. Mostly cloudy.17 mph37%29.62 "Hg10 mi
4:52 PM70 °FLight rain. Broken clouds.21 mph26%29.59 "Hg10 mi
3:52 PM70 °FPartly sunny.18 mph23%29.58 "Hg10 mi
2:52 PM73 °FScattered clouds.23 mph22%29.60 "Hg10 mi
1:52 PM69 °FScattered clouds.18 mph25%29.66 "Hg10 mi
12:52 PM67 °FScattered clouds.24 mph25%29.74 "Hg10 mi
11:52 AM65 °FScattered clouds.22 mph28%29.80 "Hg10 mi
10:52 AM62 °FScattered clouds.17 mph30%29.85 "Hg10 mi
9:52 AM54 °FScattered clouds.10 mph45%29.90 "Hg10 mi
Weather by CustomWeather, © 2015

See weather overviewHow to use our weather pages